This is the latest recevied weather packets stored in our database for station/object AA0PB. If no packets are shown the sender has not sent any weather packets the latest 10 day(s).
| Time | Temp. | Humidity | Pressure | Rain* | Wind** | Luminosity | Snow |
|---|---|---|---|---|---|---|---|
| 1777696613 | 14.44° C | 63% | 1017 hPa | 0 mm | - | 0 W/m² | - |
| 1777696310 | 14.44° C | 62% | 1016.8 hPa | 0 mm | - | 0 W/m² | - |
| 1777696009 | 15° C | 61% | 1016.9 hPa | 0 mm | - | 0 W/m² | - |
| 1777695707 | 15° C | 59% | 1016.8 hPa | 0 mm | - | 0 W/m² | - |
| 1777695404 | 15° C | 59% | 1016.6 hPa | 0 mm | - | 0 W/m² | - |
| 1777695102 | 15.56° C | 58% | 1016.8 hPa | 0 mm | - | 0 W/m² | - |
| 1777694798 | 15.56° C | 58% | 1016.6 hPa | 0 mm | - | 0 W/m² | - |
| 1777694496 | 15.56° C | 57% | 1016.8 hPa | 0 mm | - | 0 W/m² | - |
| 1777694191 | 15.56° C | 57% | 1016.5 hPa | 0 mm | - | 0 W/m² | - |
| 1777693888 | 15.56° C | 57% | 1016.5 hPa | 0 mm | - | 0 W/m² | - |
| 1777693586 | 15.56° C | 57% | 1016.5 hPa | 0 mm | - | 0 W/m² | - |
| 1777693285 | 16.11° C | 57% | 1016.4 hPa | 0 mm | - | 0 W/m² | - |
| 1777692982 | 16.11° C | 57% | 1016.2 hPa | 0 mm | - | 0 W/m² | - |
| 1777692680 | 16.11° C | 58% | 1016.2 hPa | 0 mm | - | 1 W/m² | - |
| 1777692375 | 16.11° C | 57% | 1016.3 hPa | 0 mm | - | 1 W/m² | - |
| 1777692072 | 16.67° C | 57% | 1016.1 hPa | 0 mm | - | 3 W/m² | - |
| 1777691770 | 16.67° C | 57% | 1016.2 hPa | 0 mm | - | 4 W/m² | - |
| 1777691468 | 16.67° C | 58% | 1016.2 hPa | 0 mm | - | 6 W/m² | - |
| 1777691166 | 16.67° C | 57% | 1016 hPa | 0 mm | - | 8 W/m² | - |
| 1777690864 | 17.22° C | 57% | 1016.1 hPa | 0 mm | - | 11 W/m² | - |
| 1777690560 | 17.22° C | 58% | 1016.1 hPa | 0 mm | - | 15 W/m² | - |
| 1777690259 | 17.22° C | 59% | 1015.9 hPa | 0 mm | - | 18 W/m² | - |
| 1777689956 | 17.78° C | 60% | 1015.6 hPa | 0 mm | - | 21 W/m² | - |
| 1777689654 | 17.78° C | 60% | 1015.7 hPa | 0 mm | - | 26 W/m² | - |
| 1777689352 | 17.78° C | 59% | 1015.8 hPa | 0 mm | - | 32 W/m² | - |
* Rain latest hour (hover to see other rain measurements)
** Current wind speed in m/s (hover to see current wind gust speed)